Time,TemperatureF,DewpointF,PressureIn,WindDirection,WindDirectionDegrees,WindSpeedMPH,WindSpeedGustMPH,Humidity,HourlyPrecipIn,Conditions,Clouds,dailyrainin,SoftwareType,DateUTC
2013-08-07 00:09:00,67.1,66.5,29.93,South,180,0.0,-999.0,98,-99.99,,,0.00,Acu-Link.com,2013-08-07 04:09:00,
2013-08-07 00:25:00,67.1,66.8,29.93,South,180,0.0,-999.0,99,-99.99,,,0.00,Acu-Link.com,2013-08-07 04:25:00,
2013-08-07 00:40:00,66.6,66.3,29.94,South,180,0.0,-999.0,99,-99.99,,,0.00,Acu-Link.com,2013-08-07 04:40:00,
2013-08-07 00:55:00,66.4,66.1,29.93,South,180,0.0,-999.0,99,-99.99,,,0.00,Acu-Link.com,2013-08-07 04:55:00,
2013-08-07 01:10:00,66.2,65.9,29.93,South,180,0.0,-999.0,99,-99.99,,,0.00,Acu-Link.com,2013-08-07 05:10:00,
2013-08-07 01:25:00,66.0,65.7,29.92,South,180,0.0,-999.0,99,-99.99,,,0.00,Acu-Link.com,2013-08-07 05:25:00,
2013-08-07 01:41:00,65.8,65.5,29.92,South,180,0.0,-999.0,99,-99.99,,,0.00,Acu-Link.com,2013-08-07 05:41:00,
2013-08-07 01:56:00,65.5,65.2,29.91,South,180,0.0,-999.0,99,-99.99,,,0.00,Acu-Link.com,2013-08-07 05:56:00,
2013-08-07 02:11:00,65.3,65.0,29.92,South,180,0.0,-999.0,99,-99.99,,,0.00,Acu-Link.com,2013-08-07 06:11:00,
2013-08-07 02:26:00,65.3,65.0,29.92,South,180,0.0,-999.0,99,-99.99,,,0.00,Acu-Link.com,2013-08-07 06:26:00,
2013-08-07 02:41:00,65.1,64.8,29.92,South,180,0.0,-999.0,99,-99.99,,,0.00,Acu-Link.com,2013-08-07 06:41:00,
2013-08-07 02:57:00,65.3,65.0,29.91,South,180,0.0,-999.0,99,-99.99,,,0.00,Acu-Link.com,2013-08-07 06:57:00,
2013-08-07 03:12:00,65.8,65.5,29.92,South,180,0.0,-999.0,99,-99.99,,,0.00,Acu-Link.com,2013-08-07 07:12:00,
2013-08-07 03:27:00,65.8,65.5,29.93,South,180,0.0,-999.0,99,-99.99,,,0.00,Acu-Link.com,2013-08-07 07:27:00,
2013-08-07 03:42:00,66.6,66.3,29.92,South,180,0.0,-999.0,99,-99.99,,,0.00,Acu-Link.com,2013-08-07 07:42:00,
2013-08-07 03:57:00,66.6,66.3,29.92,South,180,0.0,-999.0,99,-99.99,,,0.00,Acu-Link.com,2013-08-07 07:57:00,
2013-08-07 04:13:00,66.6,66.3,29.92,South,180,0.0,-999.0,99,-99.99,,,0.00,Acu-Link.com,2013-08-07 08:13:00,
2013-08-07 04:28:00,66.7,66.4,29.92,South,180,0.0,-999.0,99,-99.99,,,0.00,Acu-Link.com,2013-08-07 08:28:00,
2013-08-07 04:43:00,66.9,66.6,29.92,South,180,0.0,-999.0,99,-99.99,,,0.00,Acu-Link.com,2013-08-07 08:43:00,
2013-08-07 04:58:00,67.3,67.0,29.93,South,180,0.0,-999.0,99,-99.99,,,0.00,Acu-Link.com,2013-08-07 08:58:00,
2013-08-07 05:13:00,67.5,67.2,29.93,South,180,0.0,-999.0,99,-99.99,,,0.00,Acu-Link.com,2013-08-07 09:13:00,
2013-08-07 05:29:00,67.5,67.2,29.92,South,180,0.0,-999.0,99,-99.99,,,0.00,Acu-Link.com,2013-08-07 09:29:00,
2013-08-07 05:44:00,67.6,67.3,29.93,South,180,0.0,-999.0,99,-99.99,,,0.00,Acu-Link.com,2013-08-07 09:44:00,
2013-08-07 05:59:00,67.8,67.5,29.93,South,180,0.0,-999.0,99,-99.99,,,0.00,Acu-Link.com,2013-08-07 09:59:00,
2013-08-07 06:14:00,67.8,67.5,29.93,South,180,0.0,-999.0,99,-99.99,,,0.00,Acu-Link.com,2013-08-07 10:14:00,
2013-08-07 06:30:00,68.0,67.7,29.93,South,180,0.0,-999.0,99,-99.99,,,0.00,Acu-Link.com,2013-08-07 10:30:00,
2013-08-07 06:45:00,68.2,67.9,29.93,South,180,0.0,-999.0,99,-99.99,,,0.00,Acu-Link.com,2013-08-07 10:45:00,
2013-08-07 07:00:00,68.2,67.9,29.94,South,180,0.0,-999.0,99,-99.99,,,0.00,Acu-Link.com,2013-08-07 11:00:00,
2013-08-07 07:15:00,68.4,68.1,29.94,South,180,0.0,-999.0,99,-99.99,,,0.00,Acu-Link.com,2013-08-07 11:15:00,
2013-08-07 07:30:00,68.7,68.4,29.95,South,180,0.0,-999.0,99,-99.99,,,0.00,Acu-Link.com,2013-08-07 11:30:00,
2013-08-07 07:46:00,69.3,69.0,29.95,South,180,0.0,-999.0,99,-99.99,,,0.00,Acu-Link.com,2013-08-07 11:46:00,
2013-08-07 08:01:00,69.8,69.5,29.95,South,180,0.0,-999.0,99,-99.99,,,0.00,Acu-Link.com,2013-08-07 12:01:00,
2013-08-07 08:16:00,70.9,70.0,29.95,South,180,0.0,-999.0,97,-99.99,,,0.00,Acu-Link.com,2013-08-07 12:16:00,
2013-08-07 08:31:00,71.4,69.3,29.95,South,180,0.0,-999.0,93,-99.99,,,0.00,Acu-Link.com,2013-08-07 12:31:00,
2013-08-07 08:46:00,72.7,69.6,29.96,South,180,0.0,-999.0,90,-99.99,,,0.00,Acu-Link.com,2013-08-07 12:46:00,
2013-08-07 09:02:00,73.8,69.7,29.97,SE,135,1.1,-999.0,87,-99.99,,,0.00,Acu-Link.com,2013-08-07 13:02:00,
2013-08-07 09:17:00,74.5,70.0,29.95,SSE,157,2.2,-999.0,86,-99.99,,,0.00,Acu-Link.com,2013-08-07 13:17:00,
2013-08-07 09:32:00,76.3,70.4,29.96,South,180,2.2,-999.0,82,-99.99,,,0.00,Acu-Link.com,2013-08-07 13:32:00,
2013-08-07 09:47:00,78.1,71.0,29.97,SSE,157,0.0,-999.0,79,-99.99,,,0.00,Acu-Link.com,2013-08-07 13:47:00,
2013-08-07 10:02:00,77.2,70.9,29.97,South,180,1.7,-999.0,81,-99.99,,,0.00,Acu-Link.com,2013-08-07 14:02:00,
2013-08-07 10:18:00,78.4,70.6,29.97,SSW,202,2.7,-999.0,77,-99.99,,,0.00,Acu-Link.com,2013-08-07 14:18:00,
2013-08-07 10:33:00,79.7,71.4,29.98,South,180,2.7,-999.0,76,-99.99,,,0.00,Acu-Link.com,2013-08-07 14:33:00,
2013-08-07 10:48:00,80.6,70.3,29.96,ESE,112,2.2,-999.0,71,-99.99,,,0.00,Acu-Link.com,2013-08-07 14:48:00,
2013-08-07 11:03:00,81.5,71.2,29.97,ESE,112,1.7,-999.0,71,-99.99,,,0.00,Acu-Link.com,2013-08-07 15:03:00,
2013-08-07 11:19:00,81.3,71.0,29.97,SSE,157,1.1,-999.0,71,-99.99,,,0.00,Acu-Link.com,2013-08-07 15:19:00,
2013-08-07 11:34:00,82.8,70.7,29.97,ESE,112,1.7,-999.0,67,-99.99,,,0.00,Acu-Link.com,2013-08-07 15:34:00,
2013-08-07 11:49:00,83.7,71.6,29.97,SE,135,2.2,-999.0,67,-99.99,,,0.00,Acu-Link.com,2013-08-07 15:49:00,
2013-08-07 12:04:00,83.7,71.6,29.97,SE,135,0.0,-999.0,67,-99.99,,,0.00,Acu-Link.com,2013-08-07 16:04:00,
2013-08-07 12:19:00,84.9,69.9,29.97,South,180,1.7,-999.0,61,-99.99,,,0.00,Acu-Link.com,2013-08-07 16:19:00,
2013-08-07 12:35:00,84.7,70.7,29.97,SSE,157,3.2,-999.0,63,-99.99,,,0.00,Acu-Link.com,2013-08-07 16:35:00,
2013-08-07 12:50:00,86.7,70.6,29.97,ESE,112,2.2,-999.0,59,-99.99,,,0.00,Acu-Link.com,2013-08-07 16:50:00,
2013-08-07 13:05:00,86.2,71.1,29.96,South,180,1.7,-999.0,61,-99.99,,,0.00,Acu-Link.com,2013-08-07 17:05:00,
2013-08-07 13:20:00,85.6,70.6,29.96,South,180,1.1,-999.0,61,-99.99,,,0.00,Acu-Link.com,2013-08-07 17:20:00,
2013-08-07 13:35:00,87.3,68.6,29.95,East,90,2.2,-999.0,54,-99.99,,,0.00,Acu-Link.com,2013-08-07 17:35:00,
2013-08-07 13:51:00,87.8,69.6,29.94,ESE,112,0.0,-999.0,55,-99.99,,,0.00,Acu-Link.com,2013-08-07 17:51:00,
2013-08-07 14:06:00,87.4,70.3,29.94,South,180,3.2,-999.0,57,-99.99,,,0.00,Acu-Link.com,2013-08-07 18:06:00,
2013-08-07 14:21:00,86.2,69.1,29.94,South,180,2.2,-999.0,57,-99.99,,,0.00,Acu-Link.com,2013-08-07 18:21:00,
2013-08-07 14:36:00,85.5,68.0,29.93,South,180,1.7,-999.0,56,-99.99,,,0.00,Acu-Link.com,2013-08-07 18:36:00,
2013-08-07 14:51:00,83.8,68.9,29.92,SSW,202,0.0,-999.0,61,-99.99,,,0.00,Acu-Link.com,2013-08-07 18:51:00,
2013-08-07 15:07:00,85.1,69.6,29.92,South,180,3.2,-999.0,60,-99.99,,,0.00,Acu-Link.com,2013-08-07 19:07:00,
2013-08-07 15:22:00,85.6,69.1,29.92,South,180,2.2,-999.0,58,-99.99,,,0.00,Acu-Link.com,2013-08-07 19:22:00,
2013-08-07 15:37:00,85.3,69.3,29.93,SSE,157,1.7,-999.0,59,-99.99,,,0.00,Acu-Link.com,2013-08-07 19:37:00,
2013-08-07 15:52:00,86.5,71.4,29.92,SSW,202,1.1,-999.0,61,-99.99,,,0.00,Acu-Link.com,2013-08-07 19:52:00,
2013-08-07 16:07:00,87.1,71.5,29.91,South,180,3.7,-999.0,60,-99.99,,,0.00,Acu-Link.com,2013-08-07 20:07:00,
2013-08-07 16:23:00,87.4,71.3,29.90,South,180,0.0,-999.0,59,-99.99,,,0.00,Acu-Link.com,2013-08-07 20:23:00,
2013-08-07 16:38:00,85.6,71.5,29.91,South,180,2.2,-999.0,63,-99.99,,,0.00,Acu-Link.com,2013-08-07 20:38:00,
2013-08-07 16:53:00,86.5,70.9,29.91,SSW,202,1.7,-999.0,60,-99.99,,,0.00,Acu-Link.com,2013-08-07 20:53:00,
2013-08-07 17:08:00,85.6,72.0,29.90,SSW,202,1.7,-999.0,64,-99.99,,,0.00,Acu-Link.com,2013-08-07 21:08:00,
2013-08-07 17:24:00,85.6,72.5,29.90,South,180,0.0,-999.0,65,-99.99,,,0.00,Acu-Link.com,2013-08-07 21:24:00,
2013-08-07 17:39:00,86.5,71.4,29.90,SE,135,0.0,-999.0,61,-99.99,,,0.00,Acu-Link.com,2013-08-07 21:39:00,
2013-08-07 17:54:00,89.1,72.4,29.90,South,180,2.7,-999.0,58,-99.99,,,0.00,Acu-Link.com,2013-08-07 21:54:00,
2013-08-07 18:09:00,88.5,71.8,29.90,South,180,0.0,-999.0,58,-99.99,,,0.00,Acu-Link.com,2013-08-07 22:09:00,
2013-08-07 18:24:00,87.3,73.1,29.91,South,180,0.0,-999.0,63,-99.99,,,0.00,Acu-Link.com,2013-08-07 22:24:00,
2013-08-07 18:40:00,86.2,73.0,29.90,South,180,1.7,-999.0,65,-99.99,,,0.00,Acu-Link.com,2013-08-07 22:40:00,
2013-08-07 18:55:00,85.8,73.1,29.90,South,180,0.0,-999.0,66,-99.99,,,0.00,Acu-Link.com,2013-08-07 22:55:00,
2013-08-07 19:10:00,84.0,73.1,29.89,South,180,0.0,-999.0,70,-99.99,,,0.00,Acu-Link.com,2013-08-07 23:10:00,
2013-08-07 19:25:00,82.2,72.7,29.90,South,180,0.0,-999.0,73,-99.99,,,0.00,Acu-Link.com,2013-08-07 23:25:00,
2013-08-07 19:40:00,80.8,73.7,29.91,South,180,0.0,-999.0,79,-99.99,,,0.00,Acu-Link.com,2013-08-07 23:40:00,
2013-08-07 19:56:00,79.0,73.0,29.91,South,180,0.0,-999.0,82,-99.99,,,0.00,Acu-Link.com,2013-08-07 23:56:00,
2013-08-07 20:11:00,77.9,72.7,29.90,South,180,0.0,-999.0,84,-99.99,,,0.00,Acu-Link.com,2013-08-08 00:11:00,
2013-08-07 20:26:00,77.4,72.5,29.90,South,180,0.0,-999.0,85,-99.99,,,0.00,Acu-Link.com,2013-08-08 00:26:00,
2013-08-07 20:41:00,76.6,72.8,29.91,South,180,0.0,-999.0,88,-99.99,,,0.00,Acu-Link.com,2013-08-08 00:41:00,
2013-08-07 20:56:00,75.9,72.1,29.91,South,180,0.0,-999.0,88,-99.99,,,0.00,Acu-Link.com,2013-08-08 00:56:00,
2013-08-07 21:12:00,75.4,72.6,29.91,South,180,0.0,-999.0,91,-99.99,,,0.00,Acu-Link.com,2013-08-08 01:12:00,
2013-08-07 21:27:00,75.0,71.9,29.91,South,180,0.0,-999.0,90,-99.99,,,0.00,Acu-Link.com,2013-08-08 01:27:00,
2013-08-07 21:42:00,75.0,71.9,29.91,South,180,0.0,-999.0,90,-99.99,,,0.00,Acu-Link.com,2013-08-08 01:42:00,
2013-08-07 21:57:00,75.9,71.1,29.92,South,180,2.2,-999.0,85,-99.99,,,0.00,Acu-Link.com,2013-08-08 01:57:00,
2013-08-07 22:13:00,76.5,71.3,29.92,SSE,157,0.0,-999.0,84,-99.99,,,0.00,Acu-Link.com,2013-08-08 02:13:00,
2013-08-07 22:28:00,76.5,71.3,29.92,South,180,0.0,-999.0,84,-99.99,,,0.00,Acu-Link.com,2013-08-08 02:28:00,
2013-08-07 22:43:00,76.5,71.3,29.93,South,180,0.0,-999.0,84,-99.99,,,0.00,Acu-Link.com,2013-08-08 02:43:00,
2013-08-07 22:58:00,76.3,71.1,29.94,South,180,2.2,-999.0,84,-99.99,,,0.00,Acu-Link.com,2013-08-08 02:58:00,
2013-08-07 23:13:00,76.1,70.9,29.93,South,180,1.7,-999.0,84,-99.99,,,0.00,Acu-Link.com,2013-08-08 03:13:00,
2013-08-07 23:29:00,75.9,70.7,29.93,SSW,202,1.7,-999.0,84,-99.99,,,0.00,Acu-Link.com,2013-08-08 03:29:00,
2013-08-07 23:44:00,75.7,70.9,29.93,South,180,0.0,-999.0,85,-99.99,,,0.00,Acu-Link.com,2013-08-08 03:44:00,
2013-08-07 23:59:00,75.6,70.8,29.93,South,180,0.0,-999.0,85,-99.99,,,0.00,Acu-Link.com,2013-08-08 03:59:00,